| time (UTC) | temp F | wind direction | speed knots | gust knots | rain 1hr in | rain 24hr in | rain mn in | humidity % | barometer mb |
| 20260506103006 | 61 | 202 | 4.3 | 7.8 | 0.00 | 0.31 | 0.07 | 68 | 1005.2 |
| 20260506102506 | 61 | 213 | 2.6 | 8.7 | 0.00 | 0.31 | 0.07 | 68 | 1005.2 |
| 20260506102005 | 60 | 225 | 1.7 | 4.3 | 0.00 | 0.31 | 0.07 | 68 | 1005.3 |
| 20260506101506 | 61 | 218 | 4.3 | 8.7 | 0.00 | 0.31 | 0.07 | 70 | 1005.4 |
| 20260506101006 | 61 | 228 | 3.5 | 8.7 | 0.00 | 0.31 | 0.07 | 69 | 1005.4 |
| 20260506100505 | 61 | 197 | 5.2 | 7.8 | 0.00 | 0.31 | 0.07 | 69 | 1005.2 |
| 20260506100006 | 62 | 204 | 6.1 | 11.3 | 0.00 | 0.31 | 0.07 | 66 | 1005.2 |
| 20260506095506 | 62 | 238 | 4.3 | 8.7 | 0.00 | 0.31 | 0.07 | 70 | 1005.3 |
| 20260506095005 | 61 | 214 | 6.1 | 8.7 | 0.00 | 0.31 | 0.07 | 71 | 1005.3 |
| 20260506094506 | 61 | 200 | 5.2 | 10.4 | 0.00 | 0.31 | 0.07 | 71 | 1005.3 |
| 20260506094006 | 60 | 216 | 1.7 | 7.0 | 0.00 | 0.31 | 0.07 | 71 | 1005.4 |
| 20260506093506 | 60 | 217 | 0.9 | 2.6 | 0.00 | 0.31 | 0.07 | 75 | 1005.4 |
| 20260506093005 | 59 | 235 | 1.7 | 6.1 | 0.00 | 0.31 | 0.07 | 72 | 1005.5 |
| 20260506092506 | 60 | 221 | 2.6 | 5.2 | 0.00 | 0.31 | 0.07 | 74 | 1005.4 |
| 20260506092005 | 59 | 193 | 0.9 | 5.2 | 0.00 | 0.31 | 0.07 | 75 | 1005.5 |
| 20260506091505 | 60 | 220 | 2.6 | 6.1 | 0.00 | 0.31 | 0.07 | 73 | 1005.5 |
| 20260506091005 | 60 | 251 | 5.2 | 8.7 | 0.00 | 0.31 | 0.07 | 73 | 1005.5 |
| 20260506090506 | 60 | 219 | 2.6 | 10.4 | 0.00 | 0.31 | 0.07 | 73 | 1005.5 |
| 20260506090007 | 60 | 233 | 4.3 | 8.7 | 0.00 | 0.31 | 0.07 | 71 | 1005.5 |
| 20260506085506 | 60 | 222 | 4.3 | 12.2 | 0.00 | 0.31 | 0.07 | 72 | 1005.5 |
| 20260506085005 | 60 | 225 | 3.5 | 7.8 | 0.00 | 0.31 | 0.07 | 73 | 1005.5 |
| 20260506084505 | 59 | 207 | 4.3 | 7.0 | 0.00 | 0.31 | 0.07 | 74 | 1005.4 |
| 20260506084006 | 59 | 229 | 2.6 | 7.0 | 0.00 | 0.31 | 0.07 | 78 | 1005.5 |
| 20260506083509 | 59 | 204 | 2.6 | 7.8 | 0.00 | 0.31 | 0.07 | 77 | 1005.4 |
| 20260506083005 | 58 | 280 | 1.7 | 4.3 | 0.00 | 0.31 | 0.07 | 78 | 1005.3 |
| 20260506082506 | 59 | 254 | 3.5 | 7.0 | 0.00 | 0.31 | 0.07 | 78 | 1005.2 |
| 20260506082005 | 59 | 197 | 0.9 | 2.6 | 0.00 | 0.31 | 0.07 | 78 | 1005.1 |
| 20260506081506 | 59 | 336 | 1.7 | 6.1 | 0.00 | 0.31 | 0.07 | 75 | 1005.1 |
| 20260506081006 | 59 | 244 | 2.6 | 5.2 | 0.00 | 0.31 | 0.07 | 78 | 1005.0 |
| 20260506080506 | 59 | 355 | 0.9 | 7.0 | 0.00 | 0.31 | 0.07 | 77 | 1005.0 |
| 20260506073505 | 58 | 232 | 5.2 | 6.1 | 0.00 | 0.31 | 0.07 | 79 | 1005.1 |
| 20260506073006 | 58 | 200 | 2.6 | 6.1 | 0.00 | 0.31 | 0.07 | 83 | 1005.1 |
| 20260506072505 | 57 | 221 | 4.3 | 8.7 | 0.00 | 0.31 | 0.07 | 81 | 1005.2 |
| 20260506071506 | 56 | 205 | 2.6 | 6.1 | 0.00 | 0.31 | 0.07 | 82 | 1005.2 |
| 20260506071005 | 57 | 226 | 2.6 | 5.2 | 0.00 | 0.31 | 0.07 | 83 | 1005.2 |
| 20260506070505 | 57 | 211 | 3.5 | 6.1 | 0.00 | 0.31 | 0.07 | 83 | 1005.3 |
| 20260506062005 | 55 | 224 | 1.7 | 2.6 | 0.00 | 0.31 | 0.07 | 86 | 1005.2 |
| 20260506061506 | 55 | 306 | 1.7 | 2.6 | 0.00 | 0.31 | 0.07 | 86 | 1005.2 |
| 20260506061006 | 54 | 112 | 0.9 | 1.7 | 0.00 | 0.31 | 0.07 | 87 | 1005.3 |
| 20260506050505 | 52 | 211 | 1.7 | 2.6 | 0.00 | 0.31 | 0.07 | 90 | 1005.3 |
| 20260506045005 | 52 | 225 | 0.0 | 2.6 | 0.00 | 0.31 | 0.07 | 90 | 1005.2 |
| 20260506044505 | 52 | 221 | 0.9 | 2.6 | 0.00 | 0.31 | 0.07 | 91 | 1005.1 |
| 20260506044005 | 51 | 219 | 0.9 | 2.6 | 0.00 | 0.31 | 0.07 | 90 | 1005.2 |
| 20260506043505 | 51 | 220 | 1.7 | 2.6 | 0.00 | 0.31 | 0.07 | 90 | 1005.2 |
| 20260506043006 | 51 | 205 | 0.9 | 1.7 | 0.00 | 0.31 | 0.07 | 90 | 1005.2 |
| 20260506042505 | 51 | 209 | 1.7 | 2.6 | 0.00 | 0.31 | 0.07 | 90 | 1005.3 |
| 20260506042005 | 51 | 209 | 0.9 | 2.6 | 0.00 | 0.31 | 0.07 | 90 | 1005.3 |
| 20260506041505 | 51 | 269 | 0.0 | 1.7 | 0.00 | 0.31 | 0.07 | 90 | 1005.2 |
| 20260506041005 | 52 | 204 | 0.9 | 4.3 | 0.00 | 0.31 | 0.07 | 90 | 1005.3 |
| 20260506040505 | 52 | 219 | 1.7 | 6.1 | 0.00 | 0.31 | 0.07 | 90 | 1005.3 |
| 20260506040006 | 51 | 217 | 1.7 | 4.3 | 0.00 | 0.31 | 0.07 | 90 | 1005.3 |
| 20260506035505 | 52 | 255 | 1.7 | 6.1 | 0.00 | 0.31 | 0.07 | 90 | 1005.3 |
| 20260506035005 | 52 | 216 | 0.9 | 1.7 | 0.00 | 0.31 | 0.07 | 90 | 1005.3 |
| 20260506034505 | 52 | 217 | 0.9 | 2.6 | 0.00 | 0.31 | 0.07 | 90 | 1005.3 |
| 20260506034006 | 52 | 223 | 0.9 | 2.6 | 0.00 | 0.31 | 0.07 | 90 | 1005.3 |
| 20260506033505 | 52 | 239 | 0.9 | 2.6 | 0.00 | 0.31 | 0.07 | 90 | 1005.4 |
| 20260506033006 | 52 | 229 | 2.6 | 6.1 | 0.00 | 0.31 | 0.07 | 91 | 1005.5 |
| 20260506032006 | 52 | 209 | 1.7 | 2.6 | 0.00 | 0.31 | 0.07 | 91 | 1005.5 |
| 20260506031505 | 52 | 226 | 1.7 | 4.3 | 0.00 | 0.31 | 0.07 | 91 | 1005.5 |
| 20260506031005 | 51 | 199 | 0.9 | 2.6 | 0.00 | 0.31 | 0.07 | 91 | 1005.6 |
| 20260506030506 | 51 | 199 | 1.7 | 2.6 | 0.00 | 0.31 | 0.07 | 91 | 1005.6 |
| 20260506030006 | 51 | 204 | 1.7 | 2.6 | 0.00 | 0.31 | 0.07 | 91 | 1005.5 |
| 20260506025506 | 51 | 226 | 0.9 | 2.6 | 0.00 | 0.31 | 0.07 | 91 | 1005.7 |
| 20260506025006 | 51 | 207 | 0.0 | 1.7 | 0.00 | 0.31 | 0.07 | 90 | 1005.6 |
| 20260506024506 | 51 | 207 | 0.9 | 2.6 | 0.00 | 0.31 | 0.07 | 91 | 1005.7 |
| 20260506024005 | 51 | 209 | 0.9 | 2.6 | 0.00 | 0.31 | 0.07 | 90 | 1005.7 |
| 20260506023505 | 51 | 204 | 0.9 | 2.6 | 0.00 | 0.31 | 0.07 | 90 | 1005.7 |
| 20260506023007 | 51 | 217 | 1.7 | 2.6 | 0.00 | 0.31 | 0.07 | 90 | 1005.7 |
| 20260506022505 | 51 | 218 | 0.9 | 2.6 | 0.00 | 0.31 | 0.07 | 90 | 1005.6 |
| 20260506022005 | 51 | 217 | 0.9 | 2.6 | 0.00 | 0.31 | 0.07 | 90 | 1005.7 |
| 20260506021505 | 51 | 224 | 1.7 | 4.3 | 0.00 | 0.31 | 0.07 | 90 | 1005.7 |
| 20260506021006 | 51 | 203 | 2.6 | 2.6 | 0.00 | 0.31 | 0.07 | 90 | 1005.7 |
| 20260506020505 | 51 | 223 | 0.9 | 2.6 | 0.00 | 0.31 | 0.07 | 90 | 1005.7 |
| 20260506020006 | 51 | 216 | 1.7 | 2.6 | 0.00 | 0.31 | 0.07 | 90 | 1005.7 |
| 20260506015505 | 51 | 205 | 0.0 | 1.7 | 0.00 | 0.31 | 0.07 | 90 | 1005.7 |
| 20260506015006 | 51 | 205 | 0.9 | 1.7 | 0.00 | 0.31 | 0.07 | 90 | 1005.7 |
| 20260506014005 | 51 | 219 | 0.0 | 1.7 | 0.00 | 0.31 | 0.07 | 90 | 1005.8 |
| 20260506012505 | 52 | 226 | 0.9 | 2.6 | 0.00 | 0.31 | 0.07 | 90 | 1005.9 |
| 20260506012005 | 52 | 223 | 1.7 | 4.3 | 0.00 | 0.31 | 0.07 | 90 | 1005.9 |
| 20260506011505 | 52 | 251 | 1.7 | 6.1 | 0.00 | 0.31 | 0.07 | 90 | 1006.0 |
| 20260506011006 | 52 | 201 | 1.7 | 2.6 | 0.00 | 0.31 | 0.07 | 90 | 1006.0 |
| 20260506010005 | 52 | 207 | 1.7 | 2.6 | 0.00 | 0.31 | 0.07 | 90 | 1006.0 |
| 20260506005505 | 52 | 226 | 0.9 | 2.6 | 0.00 | 0.31 | 0.07 | 90 | 1006.0 |
| 20260506005005 | 53 | 215 | 1.7 | 5.2 | 0.00 | 0.31 | 0.07 | 90 | 1006.0 |
| 20260506004507 | 53 | 223 | 0.9 | 2.6 | 0.00 | 0.31 | 0.07 | 90 | 1006.0 |
| 20260506004004 | 53 | 193 | 1.7 | 2.6 | 0.01 | 0.31 | 0.07 | 90 | 1006.1 |
| 20260506003505 | 53 | 217 | 0.9 | 2.6 | 0.01 | 0.31 | 0.07 | 90 | 1006.2 |
| 20260506003005 | 53 | 210 | 1.7 | 4.3 | 0.01 | 0.31 | 0.07 | 90 | 1006.2 |
| 20260506002505 | 53 | 214 | 1.7 | 2.6 | 0.01 | 0.31 | 0.07 | 91 | 1006.2 |
| 20260506001505 | 53 | 205 | 0.9 | 1.7 | 0.01 | 0.31 | 0.07 | 91 | 1006.1 |
| 20260506001005 | 53 | 205 | 0.9 | 2.6 | 0.01 | 0.31 | 0.07 | 90 | 1006.3 |
| 20260506000006 | 53 | 313 | 0.9 | 1.7 | 0.01 | 0.31 | 0.07 | 90 | 1006.4 |
| 20260505235508 | 53 | 216 | 1.7 | 4.3 | 0.01 | 0.31 | 0.07 | 90 | 1006.3 |
| 20260505234505 | 53 | 257 | 1.7 | 2.6 | 0.01 | 0.31 | 0.07 | 91 | 1006.3 |
| 20260505234004 | 53 | 204 | 2.6 | 4.3 | 0.00 | 0.31 | 0.06 | 91 | 1006.5 |
| 20260505233505 | 53 | 223 | 2.6 | 5.2 | 0.00 | 0.31 | 0.06 | 91 | 1006.5 |
| 20260505232504 | 53 | 216 | 1.7 | 2.6 | 0.02 | 0.31 | 0.06 | 91 | 1006.5 |
| 20260505232005 | 53 | 209 | 1.7 | 2.6 | 0.02 | 0.31 | 0.06 | 91 | 1006.5 |
| 20260505231505 | 54 | 197 | 0.0 | 2.6 | 0.03 | 0.31 | 0.06 | 91 | 1006.5 |
| 20260505231006 | 54 | 205 | 0.9 | 2.6 | 0.04 | 0.31 | 0.06 | 91 | 1006.5 |
| 20260505230506 | 53 | 212 | 1.7 | 2.6 | 0.05 | 0.31 | 0.06 | 91 | 1006.6 |
| 20260505230007 | 54 | 215 | 1.7 | 2.6 | 0.06 | 0.31 | 0.06 | 91 | 1006.5 |
| 20260505225505 | 54 | 218 | 0.9 | 1.7 | 0.07 | 0.31 | 0.06 | 91 | 1006.5 |
| 20260505225005 | 54 | 218 | 0.9 | 1.7 | 0.08 | 0.31 | 0.06 | 91 | 1006.5 |
| 20260505224504 | 54 | 219 | 0.9 | 1.7 | 0.09 | 0.31 | 0.06 | 91 | 1006.6 |
| 20260505224005 | 54 | 219 | 0.9 | 1.7 | 0.09 | 0.31 | 0.06 | 91 | 1006.6 |
| 20260505223505 | 54 | 226 | 1.7 | 2.6 | 0.09 | 0.31 | 0.06 | 91 | 1006.6 |
| 20260505223005 | 54 | 265 | 0.9 | 2.6 | 0.09 | 0.30 | 0.06 | 91 | 1006.5 |
| 20260505222505 | 54 | 241 | 0.9 | 2.6 | 0.08 | 0.28 | 0.04 | 92 | 1006.6 |
| 20260505222005 | 54 | 223 | 0.9 | 1.7 | 0.08 | 0.28 | 0.04 | 92 | 1006.7 |
| 20260505221505 | 54 | 224 | 0.0 | 0.0 | 0.07 | 0.28 | 0.03 | 92 | 1006.6 |
| 20260505221005 | 54 | 224 | 0.0 | 0.0 | 0.06 | 0.27 | 0.02 | 92 | 1006.6 |
| 20260505215505 | 54 | 223 | 0.0 | 0.0 | 0.04 | 0.24 | 0.24 | 92 | 1006.5 |
| 20260505215005 | 54 | 224 | 0.0 | 0.0 | 0.02 | 0.23 | 0.23 | 92 | 1006.5 |
| 20260505214505 | 54 | 224 | 0.0 | 0.0 | 0.01 | 0.21 | 0.21 | 92 | 1006.6 |
| 20260505214005 | 54 | 224 | 0.0 | 0.0 | 0.01 | 0.21 | 0.21 | 92 | 1006.5 |
| 20260505213505 | 54 | 224 | 0.0 | 0.0 | 0.01 | 0.21 | 0.21 | 92 | 1006.6 |
| 20260505213005 | 54 | 224 | 0.0 | 0.0 | 0.01 | 0.21 | 0.21 | 92 | 1006.5 |
| 20260505212005 | 54 | 224 | 0.0 | 0.0 | 0.00 | 0.20 | 0.20 | 92 | 1006.5 |
| 20260505211505 | 54 | 224 | 0.0 | 0.0 | 0.00 | 0.20 | 0.20 | 92 | 1006.5 |
| 20260505211005 | 54 | 224 | 0.0 | 0.0 | 0.00 | 0.20 | 0.20 | 92 | 1006.6 |
| 20260505210505 | 54 | 224 | 0.0 | 0.0 | 0.00 | 0.20 | 0.20 | 92 | 1006.7 |
| 20260505205505 | 54 | 224 | 0.0 | 0.0 | 0.00 | 0.20 | 0.20 | 92 | 1006.7 |
| 20260505205005 | 54 | 224 | 0.0 | 0.0 | 0.00 | 0.20 | 0.20 | 92 | 1006.7 |
| 20260505204504 | 54 | 224 | 0.0 | 0.0 | 0.00 | 0.20 | 0.20 | 92 | 1006.7 |
| 20260505204005 | 54 | 224 | 0.0 | 0.0 | 0.00 | 0.20 | 0.20 | 92 | 1006.8 |
| 20260505203505 | 54 | 224 | 0.0 | 0.0 | 0.00 | 0.20 | 0.20 | 92 | 1006.8 |
| 20260505203005 | 54 | 224 | 0.0 | 1.7 | 0.00 | 0.20 | 0.20 | 92 | 1006.8 |
| 20260505202005 | 54 | 224 | 0.9 | 2.6 | 0.00 | 0.20 | 0.20 | 92 | 1006.8 |
| 20260505201504 | 54 | 224 | 0.0 | 1.7 | 0.00 | 0.20 | 0.20 | 92 | 1006.8 |
| 20260505201004 | 54 | 225 | 1.7 | 2.6 | 0.00 | 0.20 | 0.20 | 92 | 1006.7 |
| 20260505200505 | 54 | 234 | 0.9 | 1.7 | 0.00 | 0.20 | 0.20 | 92 | 1006.7 |
| 20260505200005 | 53 | 236 | 0.9 | 1.7 | 0.00 | 0.20 | 0.20 | 92 | 1006.6 |
| 20260505195504 | 53 | 236 | 0.0 | 1.7 | 0.00 | 0.20 | 0.20 | 91 | 1006.6 |
| 20260505195004 | 53 | 236 | 0.9 | 1.7 | 0.00 | 0.20 | 0.20 | 91 | 1006.6 |
| 20260505194504 | 53 | 235 | 0.0 | 1.7 | 0.00 | 0.20 | 0.20 | 91 | 1006.6 |
| 20260505194004 | 53 | 236 | 0.0 | 0.0 | 0.00 | 0.20 | 0.20 | 91 | 1006.5 |
| 20260505193504 | 53 | 236 | 0.0 | 0.0 | 0.00 | 0.20 | 0.20 | 91 | 1006.4 |
| 20260505193004 | 53 | 236 | 0.0 | 0.0 | 0.00 | 0.20 | 0.20 | 91 | 1006.3 |
| 20260505192504 | 53 | 236 | 0.0 | 0.0 | 0.00 | 0.20 | 0.20 | 91 | 1006.3 |
| 20260505192004 | 53 | 236 | 0.0 | 0.0 | 0.00 | 0.20 | 0.20 | 91 | 1006.4 |
| 20260505191504 | 54 | 236 | 0.0 | 0.0 | 0.00 | 0.20 | 0.20 | 91 | 1006.3 |
| 20260505191004 | 54 | 236 | 0.0 | 1.7 | 0.00 | 0.20 | 0.20 | 91 | 1006.4 |
| 20260505190504 | 54 | 236 | 0.0 | 0.9 | 0.00 | 0.20 | 0.20 | 91 | 1006.3 |
| 20260505190005 | 54 | 236 | 0.0 | 1.7 | 0.00 | 0.20 | 0.20 | 91 | 1006.3 |
| 20260505185504 | 54 | 236 | 0.0 | 0.0 | 0.00 | 0.20 | 0.20 | 91 | 1006.3 |
| 20260505185004 | 55 | 236 | 0.0 | 0.0 | 0.00 | 0.20 | 0.20 | 91 | 1006.3 |
| 20260505184504 | 55 | 236 | 0.0 | 0.0 | 0.00 | 0.20 | 0.20 | 91 | 1006.2 |
| 20260505184004 | 55 | 236 | 0.0 | 1.7 | 0.00 | 0.20 | 0.20 | 91 | 1006.3 |
| 20260505183504 | 55 | 236 | 0.9 | 1.7 | 0.00 | 0.20 | 0.20 | 91 | 1006.3 |
| 20260505183004 | 55 | 236 | 0.0 | 0.0 | 0.00 | 0.20 | 0.20 | 91 | 1006.1 |
| 20260505182504 | 55 | 236 | 0.0 | 0.0 | 0.00 | 0.20 | 0.20 | 91 | 1006.0 |
| 20260505181504 | 55 | 236 | 0.0 | 0.0 | 0.01 | 0.20 | 0.20 | 90 | 1006.1 |
| 20260505181004 | 56 | 236 | 0.0 | 0.0 | 0.01 | 0.20 | 0.20 | 90 | 1006.1 |
| 20260505180004 | 56 | 236 | 0.0 | 1.7 | 0.01 | 0.20 | 0.20 | 91 | 1006.1 |
| 20260505175503 | 56 | 236 | 0.9 | 0.9 | 0.01 | 0.20 | 0.20 | 90 | 1006.1 |
| 20260505174504 | 56 | 232 | 0.9 | 1.7 | 0.01 | 0.20 | 0.20 | 90 | 1006.1 |
| 20260505174004 | 56 | 232 | 0.9 | 0.9 | 0.01 | 0.20 | 0.20 | 90 | 1006.2 |
| 20260505173504 | 56 | 232 | 0.0 | 0.0 | 0.02 | 0.20 | 0.20 | 90 | 1006.2 |
| 20260505173004 | 56 | 232 | 0.0 | 1.7 | 0.02 | 0.20 | 0.20 | 90 | 1006.2 |
| 20260505172504 | 56 | 232 | 0.0 | 1.7 | 0.02 | 0.20 | 0.20 | 90 | 1006.2 |
| 20260505172004 | 56 | 232 | 0.0 | 0.9 | 0.02 | 0.20 | 0.20 | 90 | 1006.3 |
| 20260505171504 | 56 | 232 | 0.9 | 1.7 | 0.02 | 0.20 | 0.20 | 90 | 1006.4 |
| 20260505171004 | 56 | 232 | 0.9 | 1.7 | 0.02 | 0.20 | 0.20 | 90 | 1006.4 |
| 20260505170505 | 56 | 232 | 0.0 | 1.7 | 0.03 | 0.20 | 0.20 | 90 | 1006.4 |
| 20260505170004 | 56 | 232 | 0.0 | 1.7 | 0.03 | 0.20 | 0.20 | 90 | 1006.3 |
| 20260505165504 | 56 | 232 | 0.9 | 1.7 | 0.04 | 0.20 | 0.20 | 90 | 1006.3 |
| 20260505164504 | 56 | 232 | 0.0 | 1.7 | 0.06 | 0.20 | 0.20 | 90 | 1006.3 |
| 20260505164003 | 56 | 232 | 0.0 | 0.0 | 0.07 | 0.20 | 0.20 | 89 | 1006.3 |
| 20260505163004 | 56 | 232 | 0.0 | 0.9 | 0.07 | 0.19 | 0.19 | 89 | 1006.4 |
| 20260505162503 | 56 | 232 | 0.0 | 1.7 | 0.07 | 0.18 | 0.18 | 89 | 1006.5 |
| 20260505162004 | 56 | 232 | 0.0 | 0.9 | 0.07 | 0.18 | 0.18 | 88 | 1006.6 |
| 20260505161504 | 56 | 232 | 0.0 | 1.7 | 0.07 | 0.17 | 0.17 | 88 | 1006.6 |
| 20260505160504 | 56 | 232 | 0.0 | 1.7 | 0.08 | 0.17 | 0.17 | 88 | 1006.7 |
| 20260505153004 | 57 | 193 | 1.7 | 2.6 | 0.11 | 0.12 | 0.12 | 87 | 1006.9 |
| 20260505152504 | 58 | 237 | 1.7 | 2.6 | 0.11 | 0.11 | 0.11 | 87 | 1007.0 |
| 20260505152003 | 58 | 230 | 0.9 | 2.6 | 0.11 | 0.11 | 0.11 | 87 | 1007.0 |
| 20260505151003 | 58 | 241 | 0.9 | 2.6 | 0.09 | 0.09 | 0.09 | 86 | 1006.9 |
| 20260505150504 | 58 | 260 | 0.9 | 2.6 | 0.09 | 0.09 | 0.09 | 86 | 1006.9 |
| 20260505140504 | 63 | 319 | 2.6 | 7.8 | 0.00 | 0.00 | 0.00 | 70 | 1005.9 |
| 20260505125006 | 66 | 345 | 5.2 | 10.4 | 0.00 | 0.00 | 0.00 | 66 | 1006.5 |
| 20260505124506 | 66 | 325 | 1.7 | 5.2 | 0.00 | 0.00 | 0.00 | 67 | 1006.4 |
| 20260505124006 | 65 | 29 | 3.5 | 6.1 | 0.00 | 0.00 | 0.00 | 67 | 1006.5 |
| 20260505123505 | 65 | 317 | 1.7 | 6.1 | 0.00 | 0.00 | 0.00 | 67 | 1006.6 |
| 20260505123006 | 65 | 342 | 3.5 | 7.0 | 0.00 | 0.00 | 0.00 | 67 | 1006.6 |
| 20260505122506 | 65 | 346 | 4.3 | 8.7 | 0.00 | 0.00 | 0.00 | 66 | 1006.6 |
| 20260505122007 | 65 | 5 | 5.2 | 10.4 | 0.00 | 0.00 | 0.00 | 65 | 1006.7 |
| 20260505121006 | 66 | 7 | 5.2 | 10.4 | 0.00 | 0.00 | 0.00 | 65 | 1006.7 |
| 20260505120006 | 65 | 9 | 0.0 | 0.0 | 0.00 | 0.00 | 0.00 | 67 | 1006.6 |
| 20260505115506 | 64 | 354 | 0.0 | 0.0 | 0.00 | 0.00 | 0.00 | 67 | 1006.7 |
| 20260505115007 | 64 | 319 | 0.0 | 0.0 | 0.00 | 0.00 | 0.00 | 68 | 1006.8 |
| 20260505114506 | 64 | 354 | 0.0 | 0.0 | 0.00 | 0.00 | 0.00 | 68 | 1006.8 |
| 20260505113506 | 64 | 349 | 0.0 | 0.0 | 0.00 | 0.00 | 0.00 | 68 | 1007.0 |
| 20260505112506 | 64 | 324 | 0.0 | 0.0 | 0.00 | 0.00 | 0.00 | 68 | 1007.0 |
| 20260505111506 | 64 | 7 | 0.0 | 0.0 | 0.00 | 0.00 | 0.00 | 67 | 1007.2 |
| 20260505111006 | 65 | 15 | 0.0 | 0.0 | 0.00 | 0.00 | 0.00 | 66 | 1007.2 |
| 20260505110506 | 65 | 325 | 0.0 | 0.0 | 0.00 | 0.00 | 0.00 | 66 | 1007.2 |